User: anonymous   Login
Location: B�hl
(48.6968°N, 8.1352°E)
Time: 11:30:59
(UTC+00:00)
Language:

ERBS - Orbit

View from above orbital plane
View from above orbital plane
View from above satellite
View from above satellite

Ground track
Ground track

The orbit data is extracted from the following two-line orbital elements,

1 15354U 84108B   21138.19483856  .00004969  00000-0  86632-4 0  9995
2 15354  57.0058  58.7489 0008484  13.2289 346.8990 15.52615234 19772
Epoch (UTC): 18 May 2021 04:40:34
Eccentricity: 0.0008484
inclination: 57.0058°
perigee height: 403 km
apogee height: 415 km
right ascension of ascending node: 58.7489°
argument of perigee: 13.2289°
revolutions per day: 15.52615234
mean anomaly at epoch: 346.8990°
orbit number at epoch: 1977

The dashed part of the orbit path shows where the satellite is in the earth's shadow,  

DLR